Regional Weather Roundup
Issued by NWS

Home | Current Version | Previous Version | Text Only | Print | Product List | Glossary Off
Versions: 1 2 3 4 5 6 7 8 9 10 11 12 13 14 15 16 17 18 19 20 21 22 23 24 25 26 27 28 29 30 31 32 33 34 35 36 37 38 39 40 41 42 43 44 45 46 47 48 49 50

712
ASUS45 KBOU 231407
RWRCO

WEATHER ROUNDUP FOR COLORADO
NATIONAL WEATHER SERVICE DENVER/BOULDER CO
800 AM MDT SUN JUL 23 2017

NOTE: "FAIR" INDICATES FEW OR NO CLOUDS BELOW 12000 FEET WITH NO
SIGNIFICANT WEATHER AND/OR OBSTRUCTIONS TO VISIBILITY.

COZ001>005-013-030-031-231500-
...NORTHWEST COLORADO...

CITY           SKY/WX    TMP DP  RH WIND       PRES   REMARKS
CRAIG          FAIR      58  44  60 CALM      30.29R
HAYDEN         FAIR      57  36  44 E16       30.30S
MEEKER         FAIR      59  42  53 CALM      30.30R
RABBIT EARS PA FAIR      55  36  47 CALM      30.59S
STEAMBOAT SPGS FAIR      53  41  62 CALM      30.34S
WALDEN         FAIR      50  37  62 S3        30.45S
$$

COZ006>008-011-231500-
...WEST CENTRAL VALLEYS...

CITY           SKY/WX    TMP DP  RH WIND       PRES   REMARKS
GRAND JUNCTION FAIR      73  47  39 SE13      30.17R
MONTROSE       FAIR      65  47  52 S7        30.27R
EAGLE          SUNNY     57  45  62 CALM      30.38R
RIFLE          FAIR      63  44  50 NE3       30.25R
DELTA          FAIR      68  49  50 CALM      30.23R
NUCLA          FAIR      66  43  42 E6        30.31R
$$

COZ017>023-064>068-231500-
...SOUTHWEST COLORADO...

CITY           SKY/WX    TMP DP  RH WIND       PRES   REMARKS
DURANGO        FAIR      63  52  67 CALM      30.31S
CORTEZ         FAIR      63  53  70 CALM      30.24S
PAGOSA SPRINGS FAIR      62  48  61 CALM      30.39F
TELLURIDE      FAIR      61  44  54 E6        30.50R
WOLF CREEK PAS FAIR      48  37  66 CALM      30.72S
$$

COZ009-010-012-014-032>034-037-058>063-231500-
...CENTRAL COLORADO...

CITY           SKY/WX    TMP DP  RH WIND       PRES   REMARKS
ASPEN          FAIR      61  43  51 CALM      30.39S
BUENA VISTA    FAIR      58  45  60 NW10      30.44S
COPPER MTN     FAIR      55  34  44 S6        30.72R
BERTHOUD PASS  FAIR      46  32  57 SE3       30.75R
COTTONWOOD PAS FAIR      59  41  51 CALM      30.56S
GUNNISON       FAIR      53  46  77 CALM      30.45R
KREMMLING      FAIR      55  43  62 CALM      30.43R
LEADVILLE      FAIR      50  41  71 CALM      30.55S
MONARCH PASS   CLOUDY    52  39  62 E14       30.79S
SALIDA         FAIR      58  51  76 CALM      30.50R
SUNLIGHT       FAIR      52  34  50 CALM      30.63S
WILKERSON PASS FAIR      55  41  58 CALM      30.69R
$$

COZ069>075-231500-
...SAN LUIS VALLEY/SANGRE DE CRISTO MOUNTAINS...

CITY           SKY/WX    TMP DP  RH WIND       PRES   REMARKS
ALAMOSA        FAIR      60  51  72 CALM      30.39S
DEL NORTE      FAIR      60  47  64 W9        30.43R
LA VETA PASS   NOT AVBL
SAGUACHE         N/A    N/A N/A N/A MISG        N/A
$$

COZ035-036-038>040-231500-
...NORTHERN COLORADO FRONT RANGE...

CITY           SKY/WX    TMP DP  RH WIND       PRES   REMARKS
DENVER INTL AP FAIR      70  53  54 SW7       30.22S
DMNS CITY PARK   N/A     70  51  51 SE7G13    30.23S
AURORA         MOSUNNY   69  53  56 SW5       30.25S
FRONT RANGE AP FAIR      72  54  53 W9        30.24S
ERIE MUNI ARPT FAIR      69  52  55 CALM      30.22R
BOULDER MUN AP FAIR      68  52  56 CALM      30.22R
CENTENNIAL     FAIR      70  53  54 SE6       30.26S
BROOMFIELD     MOSUNNY   72  48  43 E5        30.25R
FORT COLLINS   FAIR      68  53  58 N5        30.21R
LONGMONT       FAIR      71  54  55 CALM      30.22S
$$

COZ041-046-047-076>085-087-088-231500-
...PIKES PEAK/PALMER DIVIDE AND SOUTHERN FOOTHILLS...

CITY           SKY/WX    TMP DP  RH WIND       PRES   REMARKS
COLO. SPRINGS  FAIR      68  53  58 NW6       30.30S
A. F. ACADEMY  FAIR      62  53  72 N3        30.32R
SCHRIEVER AFB  FAIR      67  52  58 NW8       30.30S
CHEYENNE MTN   FAIR      67  53  60 CALM      30.29S
ELLICOTT       FAIR     N/A N/A N/A N7        30.28S
FALCON           N/A     66  53  61 W7        30.35R
FORT CARSON    FAIR      65  54  66 N8        30.27R
LIMON          FAIR      66  56  70 NW5       30.24S
MONUMENT HILL  FAIR      63  52  67 SW5       30.36R
CANON CITY     SUNNY     70  55  60 W8        30.25S
WALSENBURG     FAIR      72  50  46 NW6       30.28R
TRINIDAD       FAIR      70  53  54 NW6       30.26R
$$

COZ042>045-048>051-090-091-231500-
...NORTHEAST COLORADO...

CITY           SKY/WX    TMP DP  RH WIND       PRES   REMARKS
GREELEY ARPT   FAIR      65  55  70 NW5       30.20R
AKRON          FAIR      71  53  52 SW10      30.19R
BURLINGTON     FAIR      70  55  59 NW8       30.16R
WRAY           NOT AVBL
YUMA           FAIR      68  50  52 W6        30.15S
STERLING       FAIR      64  59  82 CALM      30.15R
HOLYOKE        FAIR      72  61  68 CALM      30.14R
FORT MORGAN    FAIR      71  49  45 S3        30.19R
$$

COZ086-089-092>099-231500-
...SOUTHEAST COLORADO...

CITY           SKY/WX    TMP DP  RH WIND       PRES   REMARKS
PUEBLO         FAIR      71  53  52 W7        30.20S
LA JUNTA       FAIR      71  55  56 N3        30.16R
LAMAR          FAIR      70  59  68 W3        30.11R
SPRINGFIELD      N/A     74  59  59 NW13      30.13S
$$




USA.gov is the U.S. government's official web portal to all federal, state and local government web resources and services.